User: anonymous
Location: Melbourne
(37.8170°S, 144.9670°E)
Time: 21:57:55
(UTC+10:00)
Language:

ISS - Orbit

View from above orbital plane
View from above orbital plane
View from above satellite
View from above satellite

Ground track
Ground track

The orbit data is extracted from the following two-line orbital elements,

1 25544U 98067A   14263.23408019  .00019534  00000-0  34347-3 0  1182
2 25544 051.6471 348.4908 0002417 115.3014 270.8839 15.50486697906071
Epoch (UTC): 20 September 2014 05:37:04
Eccentricity: 0.0002417
inclination: 51.6471°
perigee height: 413 km
apogee height: 417 km
right ascension of ascending node: 348.4908°
argument of perigee: 115.3014°
revolutions per day: 15.50486697
mean anomaly at epoch: 270.8839°
orbit number at epoch: 90607

The dashed part of the orbit path shows where the satellite is in the earth's shadow,  

DLR